EW1325 Weather Reports


time (UTC)temp
C
wind
direction
speed
KPH
gust
KPH
rain 1hr
cm
rain 24hr
cm
rain mn
cm
humidity
%
barometer
mb
20260504175516 22 304 0.0 9.7 0.00 0.00 0.00 32 1007.9
20260504175015 21 146 0.0 12.9 0.00 0.00 0.00 34 1008.0
20260504174516 21 143 0.0 12.9 0.00 0.00 0.00 32 1008.0
20260504174013 21 108 0.0 3.2 0.00 0.00 0.00 34 1008.1
20260504173513 21 166 0.0 1.6 0.00 0.00 0.00 32 1008.2
20260504173012 21 143 0.0 0.0 0.00 0.00 0.00 35 1008.1
20260504172511 21 300 0.0 1.6 0.00 0.00 0.00 34 1008.2
20260504172012 21 225 0.0 3.2 0.00 0.00 0.00 33 1008.3
20260504171511 21 259 0.0 4.8 0.00 0.00 0.00 32 1008.4
20260504171013 21 156 0.0 4.8 0.00 0.00 0.00 33 1008.5
20260504170513 21 240 0.0 1.6 0.00 0.00 0.00 34 1008.5
20260504151052 18 222 0.0 6.4 0.00 0.00 0.00 37 1009.8
20260504150553 18 132 0.0 6.4 0.00 0.00 0.00 35 1009.8
20260504141039 16 146 0.0 8.0 0.00 0.00 0.00 41 1010.3
20260504140538 16 155 0.0 8.0 0.00 0.00 0.00 41 1010.3
20260504130523 13 222 0.0 0.0 0.00 0.00 0.00 52 1011.1
20260504110559 9 145 0.0 0.0 0.00 0.00 0.00 62 1011.4
20260504100543 6 160 0.0 0.0 0.00 0.00 0.00 69 1011.0
20260504081536 5 186 0.0 0.0 0.00 0.00 0.00 71 1010.5
20260504081032 5 175 0.0 0.0 0.00 0.00 0.00 71 1010.5
20260504080532 6 174 0.0 0.0 0.00 0.00 0.00 71 1010.5
20260504050508 3 356 0.0 0.0 0.00 0.00 0.00 85 1010.6
20260504050007 3 357 0.0 0.0 0.00 0.00 0.00 85 1010.5
20260504045506 3 357 0.0 0.0 0.00 0.00 0.00 85 1010.5
20260504045008 3 357 0.0 0.0 0.00 0.00 0.00 85 1010.6
20260504044515 3 357 0.0 0.0 0.00 0.00 0.00 84 1010.6
20260504044009 3 356 0.0 0.0 0.00 0.00 0.00 84 1010.6
20260504043505 3 356 0.0 0.0 0.00 0.00 0.00 85 1010.6
20260504043009 3 357 0.0 0.0 0.00 0.00 0.00 85 1010.6
20260504042503 3 357 0.0 0.0 0.00 0.00 0.00 84 1010.6
20260504042002 3 357 0.0 0.0 0.00 0.00 0.00 84 1010.5
20260504041504 3 357 0.0 0.0 0.00 0.00 0.00 84 1010.6
20260504041001 3 357 0.0 0.0 0.00 0.00 0.00 83 1010.5
20260504040600 3 356 0.0 0.0 0.00 0.00 0.00 84 1010.5
20260504040105 3 357 0.0 0.0 0.00 0.00 0.00 83 1010.4
20260504035559 3 357 0.0 0.0 0.00 0.00 0.00 83 1010.4
20260504035058 3 357 0.0 0.0 0.00 0.00 0.00 82 1010.4
20260504034608 3 357 0.0 0.0 0.00 0.00 0.00 82 1010.4
20260504034056 4 357 0.0 0.0 0.00 0.00 0.00 82 1010.4
20260504033558 4 357 0.0 0.0 0.00 0.00 0.00 82 1010.3
20260504033126 4 356 0.0 0.0 0.00 0.00 0.00 82 1010.2
20260504032556 4 357 0.0 0.0 0.00 0.00 0.00 82 1010.2
20260504032058 4 357 0.0 0.0 0.00 0.00 0.00 81 1010.2
20260504031558 4 357 0.0 0.0 0.00 0.00 0.00 81 1010.2
20260504031054 4 357 0.0 0.0 0.00 0.00 0.00 80 1010.2
20260504030553 4 356 0.0 0.0 0.00 0.00 0.00 79 1010.2
20260504030053 4 356 0.0 0.0 0.00 0.00 0.00 79 1010.2
20260504025553 5 357 0.0 0.0 0.00 0.00 0.00 78 1010.2
20260504025053 5 356 0.0 0.0 0.00 0.00 0.00 78 1010.2
20260504024552 5 357 0.0 0.0 0.00 0.00 0.00 77 1010.2
20260504024051 5 357 0.0 0.0 0.00 0.00 0.00 76 1010.2
20260504023551 5 356 0.0 0.0 0.00 0.00 0.00 76 1010.2
20260504023101 5 356 0.0 0.0 0.00 0.00 0.00 75 1010.1
20260504022550 5 357 0.0 0.0 0.00 0.00 0.00 74 1010.1
20260504022050 5 357 0.0 0.0 0.00 0.00 0.00 73 1010.0
20260504021553 5 357 0.0 0.0 0.00 0.00 0.00 73 1010.1
20260504021049 6 357 0.0 0.0 0.00 0.00 0.00 72 1010.1
20260504020549 6 357 0.0 0.0 0.00 0.00 0.00 72 1010.0
20260504020057 6 357 0.0 0.0 0.00 0.00 0.00 71 1010.0
20260504015549 6 356 0.0 0.0 0.00 0.00 0.00 70 1009.9
20260504015049 6 356 0.0 0.0 0.00 0.00 0.00 70 1009.9
20260504014551 6 357 0.0 0.0 0.00 0.00 0.00 68 1009.8
20260504014048 7 357 0.0 0.0 0.00 0.00 0.00 67 1009.8
20260504013548 7 356 0.0 0.0 0.00 0.00 0.00 66 1009.8
20260504013103 7 356 0.0 0.0 0.00 0.00 0.00 65 1009.7
20260504012551 7 357 0.0 0.0 0.00 0.00 0.00 64 1009.7
20260504012048 7 357 0.0 0.0 0.00 0.00 0.00 64 1009.7
20260504011548 7 357 0.0 0.0 0.00 0.00 0.00 64 1009.6
20260504011048 7 357 0.0 0.0 0.00 0.00 0.00 63 1009.5
20260504010547 7 357 0.0 0.0 0.00 0.00 0.00 62 1009.4
20260504010054 7 356 0.0 0.0 0.00 0.00 0.00 62 1009.3
20260504005549 7 357 0.0 0.0 0.00 0.00 0.00 62 1009.3
20260504005047 7 357 0.0 0.0 0.00 0.00 0.00 61 1009.2
20260504004600 7 357 0.0 0.0 0.00 0.00 0.00 60 1009.0
20260504004047 7 356 0.0 0.0 0.00 0.00 0.00 59 1009.0
20260504003546 7 357 0.0 0.0 0.00 0.00 0.00 58 1008.9
20260504003046 8 357 0.0 0.0 0.00 0.00 0.00 56 1008.8
20260504002546 8 356 0.0 0.0 0.00 0.00 0.00 55 1008.8
20260504002046 8 356 0.0 0.0 0.00 0.00 0.00 53 1008.7
20260504001546 8 357 0.0 0.0 0.00 0.00 0.00 52 1008.6
20260504001046 9 356 0.0 0.0 0.00 0.00 0.00 51 1008.5
20260504000545 10 356 0.0 0.0 0.00 0.00 0.00 49 1008.5
20260504000045 10 356 0.0 0.0 0.00 0.00 0.00 47 1008.4
20260503235544 10 356 0.0 0.0 0.00 0.00 0.00 45 1008.3
20260503235044 10 357 0.0 0.0 0.00 0.00 0.00 43 1008.3
20260503234547 11 356 0.0 0.0 0.00 0.00 0.00 41 1008.3
20260503234044 11 357 0.0 0.0 0.00 0.00 0.00 40 1008.3
20260503233547 11 357 0.0 0.0 0.00 0.00 0.00 39 1008.3
20260503233043 12 350 0.0 0.0 0.00 0.00 0.00 38 1008.2
20260503232547 12 15 0.0 0.0 0.00 0.00 0.00 38 1008.2
20260503232043 12 15 0.0 0.0 0.00 0.00 0.00 36 1008.2
20260503231543 12 55 0.0 0.0 0.00 0.00 0.00 36 1008.1
20260503231043 12 337 0.0 0.0 0.00 0.00 0.00 37 1008.2
20260503230543 12 82 0.0 4.8 0.00 0.00 0.00 36 1008.1
20260503230048 12 255 0.0 4.8 0.00 0.00 0.00 36 1008.1
20260503225542 12 25 0.0 8.0 0.00 0.00 0.00 35 1008.1
20260503225042 12 278 0.0 0.0 0.00 0.00 0.00 37 1008.0
20260503224542 12 51 0.0 0.0 0.00 0.00 0.00 37 1008.0
20260503224042 12 30 0.0 4.8 0.00 0.00 0.00 37 1008.0
20260503223541 12 260 0.0 4.8 0.00 0.00 0.00 37 1008.0
20260503223046 12 302 0.0 0.0 0.00 0.00 0.00 38 1008.0
20260503222541 12 28 0.0 6.4 0.00 0.00 0.00 37 1007.9
20260503222041 12 9 0.0 6.4 0.00 0.00 0.00 36 1007.9
20260503221544 12 27 0.0 1.6 0.00 0.00 0.00 36 1007.8
20260503221042 13 44 0.0 8.0 0.00 0.00 0.00 36 1007.9
20260503220541 13 319 0.0 8.0 0.00 0.00 0.00 36 1007.9
20260503220041 12 333 0.0 1.6 0.00 0.00 0.00 36 1008.0
20260503215541 13 325 0.0 6.4 0.00 0.00 0.00 37 1008.1
20260503215041 13 50 0.0 6.4 0.00 0.00 0.00 36 1008.0
20260503214540 12 232 0.0 3.2 0.00 0.00 0.00 36 1008.1
20260503214043 13 224 0.0 3.2 0.00 0.00 0.00 37 1008.0
20260503213540 13 263 0.0 3.2 0.00 0.00 0.00 36 1008.1
20260503213057 13 9 0.0 6.4 0.00 0.00 0.00 36 1007.9
20260503212540 13 329 0.0 11.3 0.00 0.00 0.00 36 1007.9
20260503212040 13 20 0.0 11.3 0.00 0.00 0.00 36 1007.9
20260503211539 13 297 0.0 9.7 0.00 0.00 0.00 36 1007.9
20260503211038 13 129 0.0 9.7 0.00 0.00 0.00 36 1007.9
20260503210540 13 112 0.0 9.7 0.00 0.00 0.00 36 1007.8
20260503210047 13 25 0.0 9.7 0.00 0.00 0.00 35 1007.9
20260503205538 13 321 0.0 8.0 0.00 0.00 0.00 36 1007.9
20260503205038 13 359 0.0 11.3 0.00 0.00 0.00 37 1007.9
20260503204547 13 241 0.0 11.3 0.00 0.00 0.00 36 1007.8
20260503204037 13 273 0.0 6.4 0.00 0.00 0.00 37 1007.8
20260503203536 13 283 0.0 11.3 0.00 0.00 0.00 37 1007.9
20260503203036 13 265 0.0 12.9 0.00 0.00 0.00 36 1007.8
20260503202537 13 257 0.0 14.5 0.00 0.00 0.00 36 1007.8
20260503202036 13 269 0.0 14.5 0.00 0.00 0.00 36 1007.7
20260503201538 13 215 0.0 11.3 0.00 0.00 0.00 38 1007.8
20260503201035 12 359 0.0 11.3 0.00 0.00 0.00 37 1007.8
20260503200535 12 285 0.0 11.3 0.00 0.00 0.00 38 1007.7
20260503200036 12 297 0.0 11.3 0.00 0.00 0.00 36 1007.6
20260503195535 12 326 0.0 20.9 0.00 0.00 0.00 38 1007.8
20260503195035 12 204 1.6 20.9 0.00 0.00 0.00 37 1007.9
20260503194537 12 47 0.0 4.8 0.00 0.00 0.00 40 1007.6
20260503194036 12 289 0.0 11.3 0.00 0.00 0.00 42 1007.8
20260503193535 12 39 0.0 11.3 0.00 0.00 0.00 38 1007.7
20260503193045 12 336 0.0 12.9 0.00 0.00 0.00 38 1007.7
20260503192535 12 34 0.0 19.3 0.00 0.00 0.00 37 1007.7
20260503192034 13 44 0.0 19.3 0.00 0.00 0.00 37 1007.6
20260503191534 13 354 0.0 9.7 0.00 0.00 0.00 39 1007.8
20260503191033 13 67 0.0 3.2 0.00 0.00 0.00 37 1007.6
20260503190532 13 298 0.0 9.7 0.00 0.00 0.00 37 1007.6
20260503190036 13 104 0.0 9.7 0.00 0.00 0.00 41 1007.6
20260503185532 13 40 0.0 9.7 0.00 0.08 0.00 39 1007.7
20260503185035 13 325 0.0 9.7 0.00 0.08 0.00 39 1007.7
20260503184538 13 278 0.0 4.8 0.00 0.08 0.00 36 1007.5
20260503184032 13 345 0.0 4.8 0.00 0.08 0.00 38 1007.6
20260503183532 12 256 0.0 0.0 0.00 0.08 0.00 37 1007.6
20260503183030 12 263 0.0 6.4 0.00 0.08 0.00 37 1007.6
20260503182531 13 271 0.0 6.4 0.00 0.08 0.00 37 1007.6
20260503182030 12 250 0.0 3.2 0.00 0.08 0.00 39 1007.6
20260503181527 12 349 0.0 3.2 0.00 0.08 0.00 39 1007.5
20260503181027 12 32 0.0 0.0 0.00 0.08 0.00 39 1007.6
20260503180527 12 321 0.0 1.6 0.00 0.08 0.00 40 1007.6
20260503180031 12 5 0.0 6.4 0.00 0.08 0.00 39 1007.7